Weather in Kirillovka

Russia / Samara Oblast     53°51′25″N   49°47′57″E
temp.,
°C
wind,
m/s
gust,
m/s
humid.,
%
clouds,
%
prec.,
mm/h
press.,
hPa
HPBL,
m
28 february, sun
sun2801:00−14nnw6129497 0.0 1001361
04:00−15nnw7129599 0.1 1004367
07:00−18nw61196100 0.1 1005315
10:00−18nw61096100 0.1 1007327
13:00−15nw6995100 0.1 1009374
16:00−15nw6994100 0.1 1010434
19:00−15nw5995100 0.1 1013393
22:00−15nw499697 0.2 1015342
1 march, mon
mon101:00−19nw369997 0.0 1017107
04:00−20nw469983 0.1 1019122
07:00−22nnw469957 0.0 102096
10:00−20nnw369648 0.0 1022206
13:00−17wnw359560 0.0 1022252
16:00−16wnw369467 0.0 1022260
19:00−19wnw22974 0.0 102220
22:00−18sw34976 0.0 102137
2 march, tue
tue201:00−16ssw599863 0.0 1019170
04:00−14ssw6119681 0.1 1015233
07:00−12ssw71395100 0.1 1011344
10:00−9ssw81494100 1.3 1008468
13:00−4ssw91495100 1.1 1004623
16:00−2sw81397100 2.8 1001656
19:00−1sw61198100 1.5 999476
22:00−1wnw4996100 2.9 999372
3 march, wed
wed301:00−4wnw499879 0.1 999248
04:00−4wnw499788 0.4 1000315
07:00−3wnw51097100 0.6 1001434
10:00−3nw5896100 1.4 1002422
13:00−2nw579499 0.6 1003465
16:00−2nw5890100 0.6 1004694
19:00−3nw41096100 0.1 1005411
22:00−5nw6129495 0.2 1008462
4 march, thu
thu401:00−8nw5119593 0.1 1010271
04:00−9nw5119692 0.1 1012288
07:00−11wnw499799 0.1 1013191
10:00−10w479595 0.1 1014232
13:00−6wsw699284 0.0 1013431
16:00−4sw7129291 0.0 1011651
19:00−3sw91690100 0.0 1009726
22:00−3sw91689100 0.1 1008737